Regional Weather Roundup
Issued by NWS

Home | Current Version | Previous Version | Text Only | Print | Product List | Glossary On
Versions: 1 2 3 4 5 6 7 8 9 10 11 12 13 14 15 16 17 18 19 20 21 22 23 24 25 26 27
000
ASUS46 KPQR 280410
RWROR

OREGON REGIONAL WEATHER ROUNDUP
NATIONAL WEATHER SERVICE PORTLAND OR
900 PM PDT MON MAR 27 2017

NOTE: "FAIR" INDICATES FEW OR NO CLOUDS BELOW 12,000 FEET WITH
NO SIGNIFICANT WEATHER AND/OR OBSTRUCTIONS TO VISIBILITY.

ORZ001>013-280500-
NORTHWEST OREGON


CITY           SKY/WX    TMP DP  RH WIND       PRES   REMARKS
ASTORIA        RAIN      46  42  86 SW9       30.27S FOG
NEWPORT        CLOUDY    48  41  76 SW12      30.37S
PORTLAND       CLOUDY    49  39  68 SW8       30.32R
VANCOUVER WA   CLOUDY    49  41  74 SW6       30.31R
SCAPPOOSE      CLOUDY    48  41  76 SW3       30.29S
HILLSBORO      LGT RAIN  47  42  83 S7        30.30R
AURORA         CLOUDY    47  41  80 SW6       30.33R
MCMINNVILLE    LGT RAIN  47  42  83 SW6       30.33R
SALEM          LGT RAIN  47  41  80 S5        30.33R
CORVALLIS      CLOUDY    46  41  81 S3        30.34F
EUGENE         CLOUDY    47  42  83 S7        30.37R
$$

ORZ021-028-280500-
SOUTHWEST OREGON


CITY           SKY/WX    TMP DP  RH WIND       PRES   REMARKS
NORTH BEND     CLOUDY    50  43  76 S5        30.39F
BROOKINGS      CLOUDY    47  42  83 CALM      30.40F
ROSEBURG       CLOUDY    49  38  65 W3        30.37R
SEXTON SUMMIT  CLOUDY    35  32  88 W5        30.30R WCI  31
MEDFORD        CLOUDY    50  40  68 N3        30.33R
$$

ORZ014>016-041-280500-
COLUMBIA GORGE


CITY           SKY/WX    TMP DP  RH WIND       PRES   REMARKS
TROUTDALE      LGT RAIN  50  41  71 W7        30.32R
THE DALLES     MOCLDY    49  41  74 NW15      30.26R
$$

ORZ029>031-041-044-049-050-061>064-502-503-505>511-280500-
EASTERN OREGON


CITY           SKY/WX    TMP DP  RH WIND       PRES   REMARKS
REDMOND        MOCLDY    37  27  67 NE6       30.23R WCI  32
BEND           MOCLDY    41  28  60 CALM      30.22R
PRINEVILLE     PTCLDY    36  28  75 CALM      30.23R
KLAMATH FALLS  MOCLDY    38  30  73 W7        30.27R WCI  33
LAKEVIEW       CLEAR     34  25  69 W5        30.25R WCI  30
HERMISTON      MOCLDY    49  38  65 SW13      30.21R
PENDLETON      MOCLDY    44  37  76 SW9       30.21R
JOHN DAY       PTCLDY    39  33  78 CALM      30.21R
MEACHAM        CLOUDY    34  31  88 CALM      30.19R
LA GRANDE      PTCLDY    36  30  80 SE6       30.20R WCI  31
BAKER CITY     PTCLDY    33  30  88 S10       30.20R WCI  25
BURNS          CLEAR     34  26  72 W7        30.20R WCI  28
ROME             N/A     39  27  62 NW6       30.18R WCI  35
ONTARIO        CLOUDY    46  33  60 NW13      30.19R
$$




USA.gov is the U.S. government's official web portal to all federal, state and local government web resources and services.